{"data":{"norad_id":65058,"epoch":"2026-05-25T04:52:19.009056Z","epoch_age_seconds":53662,"freshness":"FRESH","line1":"1 65058U 25165C   26145.20299779  .00004067  00000+0  28571-3 0  9998","line2":"2 65058  97.4454 222.2796 0002892 140.0998 220.0442 15.05659507 46301","mean_motion":15.05659507,"eccentricity":0.0002892,"inclination_deg":97.4454,"raan_deg":222.2796,"arg_perigee_deg":140.0998,"mean_anomaly_deg":220.0442,"bstar":0.00028571,"rev_number":4630,"period_min":95.639153029304,"perigee_km":547.47852499999,"apogee_km":551.4854598252,"semimajor_km":6927.6189924126,"source":"CELESTRAK","updated_at":"2026-05-25T13:38:20.675920Z"}}